| time (UTC) | temp F | wind direction | speed MPH | gust MPH | rain 1hr in | rain 24hr in | rain mn in | humidity % | barometer mb |
| 20260502221603 | 47 | 153 | 0.0 | 0.0 | 0.00 | 0.01 | 0.01 | 52 | 1019.9 |
| 20260502221100 | 48 | 261 | 3.0 | 3.0 | 0.00 | 0.01 | 0.01 | 53 | 1019.9 |
| 20260502220556 | 48 | 340 | 2.0 | 3.0 | 0.00 | 0.01 | 0.01 | 54 | 1020.0 |
| 20260502220053 | 48 | 170 | 2.0 | 2.0 | 0.00 | 0.01 | 0.01 | 55 | 1019.7 |
| 20260502215550 | 48 | 133 | 0.0 | 0.0 | 0.00 | 0.01 | 0.01 | 58 | 1019.9 |
| 20260502215047 | 48 | 102 | 2.0 | 2.0 | 0.00 | 0.01 | 0.01 | 57 | 1019.8 |
| 20260502214544 | 47 | 135 | 0.0 | 0.0 | 0.00 | 0.01 | 0.01 | 59 | 1019.7 |
| 20260502214041 | 47 | 122 | 1.0 | 2.0 | 0.00 | 0.01 | 0.01 | 57 | 1019.8 |
| 20260502213538 | 48 | 226 | 3.0 | 3.0 | 0.00 | 0.01 | 0.01 | 55 | 1019.7 |
| 20260502213036 | 48 | 135 | 0.0 | 0.0 | 0.00 | 0.01 | 0.01 | 50 | 1019.7 |
| 20260502212534 | 48 | 328 | 4.0 | 5.0 | 0.00 | 0.01 | 0.01 | 51 | 1019.6 |
| 20260502212032 | 48 | 159 | 1.0 | 1.0 | 0.00 | 0.01 | 0.01 | 47 | 1019.5 |
| 20260502211527 | 48 | 262 | 1.0 | 2.0 | 0.00 | 0.01 | 0.01 | 51 | 1019.5 |
| 20260502211024 | 48 | 148 | 2.0 | 2.0 | 0.00 | 0.01 | 0.01 | 52 | 1019.6 |
| 20260502210521 | 48 | 83 | 3.0 | 5.0 | 0.00 | 0.01 | 0.01 | 51 | 1019.6 |
| 20260502210018 | 48 | 222 | 2.0 | 2.0 | 0.00 | 0.01 | 0.01 | 54 | 1019.5 |
| 20260502205515 | 48 | 127 | 2.0 | 2.0 | 0.00 | 0.01 | 0.01 | 53 | 1019.6 |
| 20260502205012 | 48 | 163 | 2.0 | 2.0 | 0.00 | 0.01 | 0.01 | 50 | 1019.8 |
| 20260502204509 | 48 | 69 | 1.0 | 3.0 | 0.00 | 0.01 | 0.01 | 50 | 1019.6 |
| 20260502204007 | 48 | 148 | 1.0 | 1.0 | 0.00 | 0.01 | 0.01 | 52 | 1019.6 |
| 20260502203503 | 48 | 167 | 1.0 | 1.0 | 0.00 | 0.01 | 0.01 | 53 | 1019.6 |
| 20260502203000 | 49 | 272 | 2.0 | 2.0 | 0.00 | 0.01 | 0.01 | 54 | 1019.9 |
| 20260502202456 | 49 | 143 | 0.0 | 0.0 | 0.00 | 0.01 | 0.01 | 51 | 1019.5 |
| 20260502201955 | 48 | 227 | 2.0 | 3.0 | 0.00 | 0.01 | 0.01 | 53 | 1019.7 |
| 20260502201450 | 48 | 325 | 3.0 | 5.0 | 0.00 | 0.01 | 0.01 | 52 | 1019.5 |
| 20260502200947 | 49 | 318 | 3.0 | 5.0 | 0.00 | 0.01 | 0.01 | 51 | 1019.6 |
| 20260502200443 | 48 | 176 | 1.0 | 2.0 | 0.00 | 0.01 | 0.01 | 54 | 1019.7 |
| 20260502195941 | 49 | 303 | 1.0 | 2.0 | 0.00 | 0.01 | 0.01 | 55 | 1019.6 |
| 20260502195438 | 50 | 135 | 0.0 | 0.0 | 0.00 | 0.01 | 0.01 | 54 | 1019.7 |
| 20260502194934 | 48 | 138 | 0.0 | 1.0 | 0.00 | 0.01 | 0.01 | 51 | 1019.8 |
| 20260502194431 | 47 | 196 | 3.0 | 3.0 | 0.00 | 0.01 | 0.01 | 57 | 1019.8 |
| 20260502193926 | 48 | 112 | 2.0 | 3.0 | 0.00 | 0.01 | 0.01 | 55 | 1019.6 |
| 20260502193424 | 48 | 206 | 2.0 | 3.0 | 0.00 | 0.01 | 0.01 | 56 | 1019.6 |
| 20260502192919 | 50 | 27 | 2.0 | 5.0 | 0.00 | 0.01 | 0.01 | 53 | 1019.9 |
| 20260502192417 | 49 | 147 | 0.0 | 1.0 | 0.00 | 0.01 | 0.01 | 54 | 1019.8 |
| 20260502191914 | 51 | 152 | 1.0 | 2.0 | 0.00 | 0.01 | 0.01 | 54 | 1019.8 |
| 20260502191412 | 51 | 180 | 2.0 | 2.0 | 0.00 | 0.01 | 0.01 | 54 | 1020.2 |
| 20260502190909 | 50 | 325 | 3.0 | 5.0 | 0.00 | 0.01 | 0.01 | 52 | 1020.0 |
| 20260502190406 | 50 | 142 | 1.0 | 2.0 | 0.00 | 0.01 | 0.01 | 52 | 1019.8 |
| 20260502185902 | 50 | 171 | 1.0 | 1.0 | 0.00 | 0.01 | 0.01 | 54 | 1020.2 |
| 20260502185357 | 51 | 167 | 0.0 | 0.0 | 0.00 | 0.01 | 0.01 | 52 | 1020.0 |
| 20260502184855 | 48 | 351 | 4.0 | 5.0 | 0.00 | 0.01 | 0.01 | 58 | 1020.2 |
| 20260502184350 | 48 | 120 | 1.0 | 3.0 | 0.00 | 0.01 | 0.01 | 55 | 1020.2 |
| 20260502183847 | 49 | 273 | 3.0 | 5.0 | 0.00 | 0.01 | 0.01 | 57 | 1020.3 |
| 20260502183343 | 49 | 138 | 0.0 | 0.0 | 0.00 | 0.01 | 0.01 | 53 | 1020.5 |
| 20260502182838 | 49 | 292 | 4.0 | 5.0 | 0.00 | 0.01 | 0.01 | 54 | 1020.4 |
| 20260502182334 | 48 | 170 | 1.0 | 1.0 | 0.00 | 0.01 | 0.01 | 59 | 1020.3 |
| 20260502181831 | 49 | 157 | 4.0 | 5.0 | 0.00 | 0.01 | 0.01 | 53 | 1020.5 |
| 20260502181330 | 49 | 171 | 1.0 | 2.0 | 0.00 | 0.01 | 0.01 | 56 | 1020.2 |
| 20260502180827 | 50 | 108 | 3.0 | 5.0 | 0.00 | 0.01 | 0.01 | 53 | 1020.1 |
| 20260502180324 | 49 | 137 | 0.0 | 0.0 | 0.00 | 0.01 | 0.01 | 57 | 1020.5 |
| 20260502170243 | 49 | 334 | 3.0 | 3.0 | 0.00 | 0.01 | 0.01 | 51 | 1020.7 |
| 20260502164231 | 47 | 356 | 3.0 | 6.0 | 0.00 | 0.01 | 0.01 | 57 | 1020.8 |
| 20260502163726 | 47 | 200 | 4.0 | 5.0 | 0.00 | 0.01 | 0.01 | 54 | 1020.8 |
| 20260502163223 | 47 | 267 | 3.0 | 6.0 | 0.00 | 0.01 | 0.01 | 60 | 1020.6 |
| 20260502162720 | 47 | 249 | 2.0 | 3.0 | 0.00 | 0.01 | 0.01 | 55 | 1020.7 |
| 20260502162216 | 47 | 153 | 3.0 | 6.0 | 0.00 | 0.01 | 0.01 | 59 | 1020.9 |
| 20260502161713 | 47 | 103 | 4.0 | 6.0 | 0.00 | 0.01 | 0.01 | 59 | 1020.8 |
| 20260502161204 | 49 | 112 | 3.0 | 5.0 | 0.00 | 0.01 | 0.01 | 58 | 1020.8 |
| 20260502160703 | 48 | 304 | 5.0 | 6.0 | 0.00 | 0.01 | 0.01 | 56 | 1021.0 |
| 20260502160202 | 47 | 319 | 5.0 | 6.0 | 0.00 | 0.01 | 0.01 | 56 | 1021.1 |
| 20260502152115 | 48 | 38 | 2.0 | 3.0 | 0.00 | 0.01 | 0.01 | 59 | 1021.1 |
| 20260502151612 | 46 | 331 | 3.0 | 6.0 | 0.00 | 0.01 | 0.01 | 61 | 1021.0 |
| 20260502151110 | 45 | 187 | 3.0 | 5.0 | 0.00 | 0.01 | 0.01 | 63 | 1021.1 |
| 20260502150607 | 46 | 21 | 2.0 | 2.0 | 0.00 | 0.01 | 0.01 | 63 | 1020.9 |
| 20260502150103 | 47 | 95 | 2.0 | 2.0 | 0.00 | 0.01 | 0.01 | 63 | 1021.1 |
| 20260502130452 | 39 | 134 | 0.0 | 0.0 | 0.00 | 0.01 | 0.01 | 95 | 1020.8 |
| 20260502123434 | 35 | 147 | 0.0 | 0.0 | 0.00 | 0.01 | 0.01 | 99 | 1020.7 |
| 20260502122932 | 35 | 148 | 0.0 | 0.0 | 0.00 | 0.01 | 0.01 | 99 | 1020.9 |
| 20260502122427 | 35 | 65 | 2.0 | 2.0 | 0.00 | 0.01 | 0.01 | 99 | 1020.6 |
| 20260502121926 | 35 | 119 | 0.0 | 0.0 | 0.00 | 0.01 | 0.01 | 99 | 1020.3 |
| 20260502121422 | 35 | 138 | 0.0 | 0.0 | 0.00 | 0.01 | 0.01 | 99 | 1020.5 |
| 20260502120921 | 34 | 138 | 0.0 | 0.0 | 0.00 | 0.01 | 0.01 | 99 | 1020.5 |
| 20260502120416 | 34 | 132 | 0.0 | 0.0 | 0.00 | 0.01 | 0.01 | 99 | 1020.2 |
| 20260502115914 | 34 | 115 | 0.0 | 0.0 | 0.00 | 0.01 | 0.01 | 99 | 1020.3 |
| 20260502115411 | 34 | 133 | 0.0 | 0.0 | 0.00 | 0.01 | 0.01 | 99 | 1020.2 |
| 20260502114907 | 33 | 132 | 0.0 | 0.0 | 0.00 | 0.01 | 0.01 | 99 | 1020.5 |
| 20260502114404 | 33 | 139 | 0.0 | 0.0 | 0.00 | 0.01 | 0.01 | 99 | 1020.4 |
| 20260502113901 | 33 | 138 | 0.0 | 0.0 | 0.00 | 0.01 | 0.01 | 99 | 1020.6 |
| 20260502113358 | 32 | 140 | 0.0 | 0.0 | 0.00 | 0.01 | 0.01 | 99 | 1020.4 |
| 20260502112856 | 32 | 141 | 0.0 | 0.0 | 0.00 | 0.01 | 0.01 | 99 | 1020.5 |
| 20260502112354 | 32 | 142 | 0.0 | 0.0 | 0.00 | 0.01 | 0.01 | 99 | 1020.5 |
| 20260502111851 | 32 | 138 | 0.0 | 0.0 | 0.00 | 0.01 | 0.01 | 99 | 1020.3 |
| 20260502111348 | 32 | 140 | 0.0 | 0.0 | 0.00 | 0.01 | 0.01 | 99 | 1020.3 |
| 20260502110846 | 32 | 140 | 0.0 | 0.0 | 0.00 | 0.01 | 0.01 | 99 | 1020.2 |
| 20260502110344 | 31 | 139 | 0.0 | 0.0 | 0.00 | 0.01 | 0.01 | 99 | 1020.5 |
| 20260502105841 | 31 | 139 | 0.0 | 0.0 | 0.00 | 0.01 | 0.01 | 99 | 1020.2 |
| 20260502105338 | 31 | 136 | 0.0 | 0.0 | 0.00 | 0.01 | 0.01 | 99 | 1020.3 |
| 20260502104835 | 31 | 138 | 0.0 | 0.0 | 0.00 | 0.01 | 0.01 | 99 | 1019.9 |
| 20260502104333 | 31 | 139 | 0.0 | 0.0 | 0.00 | 0.01 | 0.01 | 99 | 1020.0 |
| 20260502103830 | 31 | 139 | 0.0 | 0.0 | 0.00 | 0.01 | 0.01 | 99 | 1020.1 |
| 20260502103327 | 31 | 139 | 0.0 | 0.0 | 0.00 | 0.01 | 0.01 | 99 | 1019.9 |
| 20260502102824 | 31 | 139 | 0.0 | 0.0 | 0.00 | 0.01 | 0.01 | 99 | 1020.5 |
| 20260502102321 | 31 | 139 | 0.0 | 0.0 | 0.00 | 0.01 | 0.01 | 99 | 1020.3 |
| 20260502101819 | 31 | 141 | 0.0 | 0.0 | 0.00 | 0.01 | 0.01 | 99 | 1020.2 |
| 20260502101316 | 31 | 138 | 0.0 | 0.0 | 0.00 | 0.01 | 0.01 | 99 | 1020.4 |
| 20260502100814 | 32 | 137 | 0.0 | 0.0 | 0.00 | 0.01 | 0.01 | 99 | 1020.4 |
| 20260502100313 | 32 | 138 | 0.0 | 0.0 | 0.00 | 0.01 | 0.01 | 99 | 1020.4 |
| 20260502091247 | 32 | 139 | 0.0 | 0.0 | 0.00 | 0.01 | 0.01 | 99 | 1020.4 |
| 20260502090744 | 32 | 141 | 0.0 | 0.0 | 0.00 | 0.01 | 0.01 | 99 | 1020.1 |
| 20260502090241 | 33 | 139 | 0.0 | 0.0 | 0.00 | 0.01 | 0.01 | 99 | 1020.3 |
| 20260502071142 | 34 | 139 | 0.0 | 0.0 | 0.00 | 0.00 | 0.00 | 99 | 1020.2 |
| 20260502070640 | 34 | 140 | 0.0 | 0.0 | 0.00 | 0.00 | 0.00 | 99 | 1020.0 |
| 20260502070137 | 34 | 141 | 0.0 | 0.0 | 0.00 | 0.00 | 0.00 | 99 | 1019.9 |
| 20260502065635 | 35 | 140 | 0.0 | 0.0 | 0.00 | 0.00 | 0.00 | 99 | 1020.0 |
| 20260502065133 | 35 | 140 | 0.0 | 0.0 | 0.00 | 0.00 | 0.00 | 99 | 1020.3 |
| 20260502064632 | 35 | 142 | 0.0 | 0.0 | 0.00 | 0.00 | 0.00 | 99 | 1020.2 |
| 20260502064128 | 35 | 142 | 0.0 | 0.0 | 0.00 | 0.00 | 0.00 | 99 | 1020.3 |
| 20260502063626 | 35 | 142 | 0.0 | 0.0 | 0.00 | 0.00 | 0.00 | 99 | 1020.3 |
| 20260502063124 | 35 | 140 | 0.0 | 0.0 | 0.00 | 0.00 | 0.00 | 99 | 1020.1 |
| 20260502062620 | 35 | 140 | 0.0 | 0.0 | 0.00 | 0.00 | 0.00 | 99 | 1020.2 |
| 20260502062118 | 36 | 142 | 0.0 | 0.0 | 0.00 | 0.00 | 0.00 | 99 | 1020.4 |
| 20260502061616 | 36 | 142 | 0.0 | 0.0 | 0.00 | 0.00 | 0.00 | 99 | 1019.9 |
| 20260502061114 | 36 | 139 | 0.0 | 0.0 | 0.00 | 0.00 | 0.00 | 99 | 1020.2 |
| 20260502060613 | 36 | 140 | 0.0 | 0.0 | 0.00 | 0.00 | 0.00 | 99 | 1020.3 |
| 20260502060110 | 36 | 140 | 0.0 | 0.0 | 0.00 | 0.00 | 0.00 | 99 | 1020.5 |
| 20260502055608 | 36 | 139 | 0.0 | 0.0 | 0.00 | 0.00 | 0.00 | 99 | 1020.4 |
| 20260502055106 | 36 | 139 | 0.0 | 0.0 | 0.00 | 0.00 | 0.00 | 99 | 1020.3 |
| 20260502054605 | 36 | 141 | 0.0 | 0.0 | 0.00 | 0.00 | 0.00 | 99 | 1020.5 |
| 20260502054102 | 36 | 142 | 0.0 | 0.0 | 0.00 | 0.00 | 0.00 | 99 | 1020.4 |
| 20260502053558 | 37 | 140 | 0.0 | 0.0 | 0.00 | 0.00 | 0.00 | 99 | 1020.4 |
| 20260502053056 | 37 | 141 | 0.0 | 0.0 | 0.00 | 0.00 | 0.00 | 99 | 1020.5 |
| 20260502052554 | 37 | 140 | 0.0 | 0.0 | 0.00 | 0.00 | 0.00 | 99 | 1020.4 |
| 20260502052052 | 37 | 140 | 0.0 | 0.0 | 0.00 | 0.00 | 0.00 | 99 | 1020.5 |
| 20260502051550 | 37 | 140 | 0.0 | 0.0 | 0.00 | 0.00 | 0.00 | 99 | 1020.3 |
| 20260502051048 | 37 | 140 | 0.0 | 0.0 | 0.00 | 0.00 | 0.00 | 99 | 1020.3 |
| 20260502050543 | 37 | 138 | 0.0 | 0.0 | 0.00 | 0.00 | 0.00 | 99 | 1020.2 |
| 20260502050040 | 37 | 142 | 0.0 | 0.0 | 0.00 | 0.00 | 0.00 | 99 | 1020.3 |
| 20260502045537 | 37 | 138 | 0.0 | 0.0 | 0.00 | 0.00 | 0.00 | 99 | 1020.3 |
| 20260502045035 | 37 | 136 | 0.0 | 0.0 | 0.00 | 0.00 | 0.00 | 99 | 1020.2 |
| 20260502044531 | 37 | 139 | 0.0 | 0.0 | 0.00 | 0.00 | 0.00 | 99 | 1020.3 |
| 20260502044027 | 38 | 139 | 0.0 | 0.0 | 0.00 | 0.00 | 0.00 | 99 | 1020.2 |
| 20260502043525 | 38 | 139 | 0.0 | 0.0 | 0.00 | 0.00 | 0.00 | 99 | 1020.4 |
| 20260502043021 | 37 | 139 | 0.0 | 0.0 | 0.00 | 0.00 | 0.00 | 99 | 1020.5 |
| 20260502042516 | 38 | 141 | 0.0 | 0.0 | 0.00 | 0.00 | 0.00 | 99 | 1020.4 |
| 20260502042014 | 38 | 140 | 0.0 | 0.0 | 0.00 | 0.00 | 0.00 | 99 | 1020.5 |
| 20260502041512 | 38 | 139 | 0.0 | 0.0 | 0.00 | 0.00 | 0.00 | 99 | 1020.3 |
| 20260502041008 | 38 | 139 | 0.0 | 0.0 | 0.00 | 0.00 | 0.00 | 99 | 1020.3 |
| 20260502040505 | 38 | 140 | 0.0 | 0.0 | 0.00 | 0.00 | 0.00 | 99 | 1020.3 |
| 20260502040003 | 38 | 140 | 0.0 | 0.0 | 0.00 | 0.12 | 0.12 | 99 | 1019.9 |
| 20260502035457 | 39 | 142 | 0.0 | 0.0 | 0.00 | 0.12 | 0.12 | 99 | 1020.0 |
| 20260502034955 | 38 | 137 | 0.0 | 0.0 | 0.00 | 0.12 | 0.12 | 99 | 1020.0 |
| 20260502034454 | 39 | 142 | 0.0 | 0.0 | 0.00 | 0.12 | 0.12 | 99 | 1020.1 |
| 20260502033952 | 38 | 140 | 0.0 | 0.0 | 0.00 | 0.12 | 0.12 | 99 | 1020.4 |
| 20260502033449 | 39 | 140 | 0.0 | 0.0 | 0.00 | 0.12 | 0.12 | 99 | 1020.0 |
| 20260502032946 | 39 | 141 | 0.0 | 0.0 | 0.00 | 0.12 | 0.12 | 99 | 1020.2 |
| 20260502032442 | 39 | 139 | 0.0 | 0.0 | 0.00 | 0.12 | 0.12 | 99 | 1020.4 |
| 20260502031939 | 39 | 140 | 0.0 | 0.0 | 0.00 | 0.12 | 0.12 | 99 | 1020.4 |
| 20260502031438 | 39 | 140 | 0.0 | 0.0 | 0.00 | 0.12 | 0.12 | 99 | 1019.9 |
| 20260502030936 | 39 | 141 | 0.0 | 0.0 | 0.00 | 0.12 | 0.12 | 99 | 1020.2 |
| 20260502030434 | 39 | 140 | 0.0 | 0.0 | 0.00 | 0.12 | 0.12 | 99 | 1020.4 |
| 20260502025931 | 40 | 143 | 0.0 | 0.0 | 0.00 | 0.12 | 0.12 | 99 | 1020.3 |
| 20260502025428 | 40 | 140 | 0.0 | 0.0 | 0.00 | 0.12 | 0.12 | 99 | 1020.2 |
| 20260502024926 | 40 | 141 | 0.0 | 0.0 | 0.00 | 0.12 | 0.12 | 99 | 1020.3 |
| 20260502024424 | 40 | 141 | 0.0 | 0.0 | 0.00 | 0.12 | 0.12 | 99 | 1020.4 |
| 20260502023922 | 40 | 140 | 0.0 | 0.0 | 0.00 | 0.12 | 0.12 | 99 | 1020.3 |
| 20260502023419 | 40 | 140 | 0.0 | 0.0 | 0.00 | 0.12 | 0.12 | 99 | 1020.4 |
| 20260502022916 | 40 | 140 | 0.0 | 0.0 | 0.00 | 0.12 | 0.12 | 99 | 1020.4 |
| 20260502022412 | 40 | 142 | 0.0 | 0.0 | 0.00 | 0.12 | 0.12 | 99 | 1020.1 |
| 20260502021909 | 40 | 140 | 0.0 | 0.0 | 0.00 | 0.12 | 0.12 | 99 | 1019.8 |
| 20260502021407 | 41 | 140 | 0.0 | 0.0 | 0.00 | 0.12 | 0.12 | 99 | 1019.8 |
| 20260502020904 | 41 | 140 | 0.0 | 0.0 | 0.00 | 0.12 | 0.12 | 99 | 1019.9 |
| 20260502020402 | 41 | 143 | 0.0 | 0.0 | 0.00 | 0.12 | 0.12 | 98 | 1019.6 |
| 20260502015858 | 41 | 141 | 0.0 | 0.0 | 0.00 | 0.12 | 0.12 | 97 | 1019.7 |
| 20260502015355 | 41 | 139 | 0.0 | 0.0 | 0.00 | 0.12 | 0.12 | 97 | 1019.5 |
| 20260502014853 | 42 | 139 | 0.0 | 0.0 | 0.00 | 0.12 | 0.12 | 96 | 1019.5 |
| 20260502014349 | 42 | 141 | 0.0 | 0.0 | 0.00 | 0.12 | 0.12 | 96 | 1019.6 |
| 20260502013845 | 42 | 140 | 0.0 | 0.0 | 0.00 | 0.12 | 0.12 | 95 | 1019.2 |
| 20260502013341 | 43 | 136 | 0.0 | 0.0 | 0.00 | 0.12 | 0.12 | 94 | 1019.2 |
| 20260502012838 | 43 | 141 | 0.0 | 0.0 | 0.00 | 0.12 | 0.12 | 93 | 1019.2 |
| 20260502012336 | 43 | 141 | 0.0 | 0.0 | 0.00 | 0.12 | 0.12 | 93 | 1019.0 |
| 20260502011833 | 44 | 140 | 0.0 | 0.0 | 0.00 | 0.12 | 0.12 | 92 | 1018.7 |
| 20260502011329 | 44 | 133 | 1.0 | 1.0 | 0.07 | 0.12 | 0.12 | 90 | 1018.8 |
| 20260502010827 | 44 | 101 | 2.0 | 3.0 | 0.07 | 0.12 | 0.12 | 88 | 1019.1 |
| 20260502010323 | 45 | 83 | 3.0 | 3.0 | 0.00 | 0.11 | 0.11 | 85 | 1019.1 |
| 20260502005820 | 46 | 38 | 3.0 | 5.0 | 0.00 | 0.11 | 0.11 | 82 | 1018.8 |
| 20260502005318 | 47 | 100 | 2.0 | 3.0 | 0.00 | 0.11 | 0.11 | 83 | 1018.4 |
| 20260502004815 | 47 | 135 | 0.0 | 0.0 | 0.00 | 0.11 | 0.11 | 83 | 1018.3 |
| 20260502004310 | 47 | 139 | 0.0 | 0.0 | 0.00 | 0.11 | 0.11 | 83 | 1017.9 |
| 20260502003809 | 46 | 139 | 0.0 | 0.0 | 0.00 | 0.11 | 0.11 | 83 | 1018.2 |
| 20260502003305 | 47 | 140 | 0.0 | 0.0 | 0.00 | 0.11 | 0.11 | 83 | 1018.1 |
| 20260502002801 | 47 | 134 | 0.0 | 0.0 | 0.00 | 0.11 | 0.11 | 82 | 1018.2 |
| 20260502002259 | 47 | 138 | 0.0 | 0.0 | 0.00 | 0.11 | 0.11 | 82 | 1018.2 |
| 20260502001756 | 47 | 142 | 0.0 | 0.0 | 0.00 | 0.11 | 0.11 | 81 | 1018.4 |
| 20260502001254 | 48 | 140 | 0.0 | 0.0 | 0.00 | 0.11 | 0.11 | 81 | 1018.3 |
| 20260502000752 | 48 | 135 | 0.0 | 0.0 | 0.00 | 0.11 | 0.11 | 79 | 1018.3 |
| 20260502000250 | 48 | 139 | 0.0 | 0.0 | 0.00 | 0.11 | 0.11 | 80 | 1018.0 |
| 20260501235744 | 48 | 139 | 0.0 | 0.0 | 0.00 | 0.11 | 0.11 | 79 | 1017.9 |
| 20260501235241 | 48 | 129 | 0.0 | 0.0 | 0.00 | 0.11 | 0.11 | 77 | 1017.8 |
| 20260501234737 | 48 | 137 | 0.0 | 0.0 | 0.00 | 0.11 | 0.11 | 78 | 1017.8 |
| 20260501234234 | 48 | 149 | 0.0 | 0.0 | 0.00 | 0.11 | 0.11 | 76 | 1017.5 |
| 20260501233732 | 48 | 142 | 0.0 | 0.0 | 0.00 | 0.11 | 0.11 | 77 | 1017.5 |
| 20260501233229 | 48 | 153 | 0.0 | 0.0 | 0.00 | 0.11 | 0.11 | 76 | 1017.5 |
| 20260501232724 | 48 | 142 | 0.0 | 0.0 | 0.00 | 0.11 | 0.11 | 77 | 1017.6 |
| 20260501232222 | 49 | 87 | 2.0 | 3.0 | 0.00 | 0.11 | 0.11 | 76 | 1017.4 |
| 20260501231719 | 49 | 147 | 0.0 | 0.0 | 0.00 | 0.11 | 0.11 | 77 | 1017.3 |
| 20260501231217 | 49 | 143 | 0.0 | 0.0 | 0.00 | 0.11 | 0.11 | 76 | 1017.3 |
| 20260501230715 | 49 | 142 | 0.0 | 0.0 | 0.00 | 0.11 | 0.11 | 77 | 1017.4 |
| 20260501230214 | 48 | 115 | 2.0 | 2.0 | 0.00 | 0.11 | 0.11 | 76 | 1017.5 |
| 20260501225711 | 49 | 108 | 1.0 | 2.0 | 0.00 | 0.11 | 0.11 | 76 | 1017.4 |
| 20260501225208 | 49 | 147 | 0.0 | 0.0 | 0.00 | 0.11 | 0.11 | 76 | 1017.5 |
| 20260501224704 | 49 | 116 | 1.0 | 2.0 | 0.00 | 0.11 | 0.11 | 77 | 1017.5 |
| 20260501224201 | 48 | 23 | 1.0 | 3.0 | 0.00 | 0.11 | 0.11 | 77 | 1017.5 |
| 20260501223658 | 49 | 155 | 1.0 | 2.0 | 0.00 | 0.11 | 0.11 | 77 | 1017.5 |
| 20260501223154 | 49 | 123 | 2.0 | 5.0 | 0.00 | 0.11 | 0.11 | 76 | 1017.5 |
| 20260501222650 | 48 | 138 | 0.0 | 0.0 | 0.00 | 0.11 | 0.11 | 75 | 1017.5 |
| 20260501222148 | 49 | 191 | 1.0 | 2.0 | 0.00 | 0.11 | 0.11 | 76 | 1017.5 |